| time (UTC) | temp F | wind direction | speed MPH | gust MPH | rain 1hr in | rain 24hr in | rain mn in | humidity % | barometer mb |
| 20260510144829 | 51 | 355 | 3.0 | 8.0 | 0.00 | 0.00 | 0.00 | 44 | 1017.7 |
| 20260510144325 | 51 | 53 | 4.0 | 6.0 | 0.00 | 0.00 | 0.00 | 44 | 1017.8 |
| 20260510143825 | 51 | 101 | 3.0 | 5.0 | 0.00 | 0.00 | 0.00 | 45 | 1017.5 |
| 20260510143321 | 50 | 21 | 3.0 | 8.0 | 0.00 | 0.00 | 0.00 | 45 | 1017.6 |
| 20260510142819 | 50 | 338 | 2.0 | 3.0 | 0.00 | 0.00 | 0.00 | 46 | 1017.6 |
| 20260510142315 | 49 | 155 | 3.0 | 5.0 | 0.00 | 0.00 | 0.00 | 49 | 1017.4 |
| 20260510141812 | 48 | 170 | 3.0 | 5.0 | 0.00 | 0.00 | 0.00 | 49 | 1017.6 |
| 20260510141309 | 47 | 47 | 2.0 | 8.0 | 0.00 | 0.00 | 0.00 | 51 | 1017.5 |
| 20260510140807 | 47 | 125 | 2.0 | 5.0 | 0.00 | 0.00 | 0.00 | 53 | 1017.4 |
| 20260510140302 | 48 | 12 | 3.0 | 6.0 | 0.00 | 0.00 | 0.00 | 53 | 1017.5 |
| 20260510135755 | 48 | 130 | 2.0 | 5.0 | 0.00 | 0.00 | 0.00 | 54 | 1017.6 |
| 20260510135252 | 47 | 107 | 2.0 | 5.0 | 0.00 | 0.00 | 0.00 | 55 | 1017.6 |
| 20260510134750 | 47 | 34 | 2.0 | 11.0 | 0.00 | 0.00 | 0.00 | 56 | 1017.5 |
| 20260510134247 | 47 | 87 | 1.0 | 7.0 | 0.00 | 0.00 | 0.00 | 59 | 1017.7 |
| 20260510133742 | 46 | 107 | 1.0 | 3.0 | 0.00 | 0.00 | 0.00 | 61 | 1017.5 |
| 20260510133238 | 47 | 111 | 2.0 | 6.0 | 0.00 | 0.00 | 0.00 | 60 | 1017.4 |
| 20260510132734 | 46 | 77 | 2.0 | 5.0 | 0.00 | 0.00 | 0.00 | 63 | 1017.5 |
| 20260510132232 | 46 | 31 | 2.0 | 3.0 | 0.00 | 0.00 | 0.00 | 66 | 1017.4 |
| 20260510131728 | 45 | 168 | 3.0 | 3.0 | 0.00 | 0.00 | 0.00 | 67 | 1017.4 |
| 20260510131227 | 44 | 82 | 1.0 | 5.0 | 0.00 | 0.00 | 0.00 | 71 | 1017.3 |
| 20260510130723 | 44 | 110 | 0.0 | 1.0 | 0.00 | 0.00 | 0.00 | 73 | 1017.4 |
| 20260510130220 | 43 | 115 | 0.0 | 1.0 | 0.00 | 0.00 | 0.00 | 74 | 1017.3 |
| 20260510125716 | 43 | 106 | 1.0 | 2.0 | 0.00 | 0.00 | 0.00 | 74 | 1017.5 |
| 20260510125212 | 42 | 95 | 1.0 | 2.0 | 0.00 | 0.00 | 0.00 | 76 | 1017.2 |
| 20260510124709 | 42 | 93 | 1.0 | 2.0 | 0.00 | 0.00 | 0.00 | 77 | 1017.2 |
| 20260510124207 | 42 | 98 | 1.0 | 2.0 | 0.00 | 0.00 | 0.00 | 79 | 1017.2 |
| 20260510123702 | 42 | 107 | 1.0 | 2.0 | 0.00 | 0.00 | 0.00 | 79 | 1017.2 |
| 20260510123158 | 41 | 102 | 1.0 | 2.0 | 0.00 | 0.00 | 0.00 | 80 | 1017.3 |
| 20260510122655 | 41 | 113 | 1.0 | 1.0 | 0.00 | 0.00 | 0.00 | 80 | 1017.1 |
| 20260510122151 | 41 | 114 | 0.0 | 1.0 | 0.00 | 0.00 | 0.00 | 80 | 1017.1 |
| 20260510121647 | 40 | 114 | 0.0 | 0.0 | 0.00 | 0.00 | 0.00 | 81 | 1016.6 |
| 20260510121145 | 40 | 114 | 0.0 | 0.0 | 0.00 | 0.00 | 0.00 | 81 | 1016.5 |
| 20260510120642 | 40 | 114 | 0.0 | 0.0 | 0.00 | 0.00 | 0.00 | 81 | 1016.8 |
| 20260510120138 | 40 | 114 | 0.0 | 0.0 | 0.00 | 0.00 | 0.00 | 82 | 1016.8 |
| 20260510115634 | 39 | 114 | 0.0 | 1.0 | 0.00 | 0.00 | 0.00 | 82 | 1016.6 |
| 20260510115132 | 39 | 115 | 0.0 | 1.0 | 0.00 | 0.00 | 0.00 | 83 | 1016.5 |
| 20260510114628 | 39 | 115 | 0.0 | 0.0 | 0.00 | 0.00 | 0.00 | 84 | 1016.6 |
| 20260510114124 | 39 | 115 | 0.0 | 1.0 | 0.00 | 0.00 | 0.00 | 82 | 1016.4 |
| 20260510113619 | 38 | 110 | 1.0 | 1.0 | 0.00 | 0.00 | 0.00 | 80 | 1016.2 |
| 20260510113117 | 38 | 110 | 1.0 | 1.0 | 0.00 | 0.00 | 0.00 | 82 | 1016.3 |
| 20260510112613 | 38 | 110 | 0.0 | 0.0 | 0.00 | 0.00 | 0.00 | 84 | 1016.4 |
| 20260510112110 | 37 | 110 | 0.0 | 1.0 | 0.00 | 0.00 | 0.00 | 81 | 1016.0 |
| 20260510111606 | 37 | 110 | 0.0 | 0.0 | 0.00 | 0.00 | 0.00 | 82 | 1016.3 |
| 20260510111102 | 37 | 110 | 0.0 | 0.0 | 0.00 | 0.00 | 0.00 | 81 | 1016.0 |
| 20260510110558 | 37 | 110 | 0.0 | 0.0 | 0.00 | 0.00 | 0.00 | 82 | 1016.1 |
| 20260510110055 | 37 | 110 | 0.0 | 0.0 | 0.00 | 0.00 | 0.00 | 83 | 1016.2 |
| 20260510105551 | 37 | 110 | 0.0 | 0.0 | 0.00 | 0.00 | 0.00 | 84 | 1015.9 |
| 20260510105045 | 37 | 110 | 0.0 | 0.0 | 0.00 | 0.00 | 0.00 | 84 | 1015.7 |
| 20260510104542 | 37 | 110 | 0.0 | 0.0 | 0.00 | 0.00 | 0.00 | 84 | 1015.7 |
| 20260510104039 | 36 | 110 | 0.0 | 0.0 | 0.00 | 0.00 | 0.00 | 82 | 1015.7 |
| 20260510103536 | 36 | 110 | 0.0 | 1.0 | 0.00 | 0.00 | 0.00 | 82 | 1015.7 |
| 20260510103032 | 36 | 110 | 0.0 | 1.0 | 0.00 | 0.00 | 0.00 | 83 | 1015.6 |
| 20260510102528 | 36 | 110 | 0.0 | 0.0 | 0.00 | 0.00 | 0.00 | 85 | 1015.5 |
| 20260510102024 | 36 | 110 | 0.0 | 0.0 | 0.00 | 0.00 | 0.00 | 84 | 1015.3 |
| 20260510101522 | 36 | 110 | 0.0 | 0.0 | 0.00 | 0.00 | 0.00 | 84 | 1015.3 |
| 20260510101021 | 36 | 110 | 0.0 | 0.0 | 0.00 | 0.00 | 0.00 | 84 | 1015.0 |
| 20260510100516 | 36 | 110 | 0.0 | 1.0 | 0.00 | 0.00 | 0.00 | 84 | 1015.2 |
| 20260510100013 | 36 | 110 | 0.0 | 0.0 | 0.00 | 0.00 | 0.00 | 84 | 1015.3 |
| 20260510095509 | 37 | 110 | 0.0 | 0.0 | 0.00 | 0.00 | 0.00 | 83 | 1015.0 |
| 20260510095008 | 36 | 110 | 0.0 | 0.0 | 0.00 | 0.00 | 0.00 | 80 | 1014.8 |
| 20260510094503 | 36 | 110 | 0.0 | 1.0 | 0.00 | 0.00 | 0.00 | 81 | 1014.8 |
| 20260510093959 | 36 | 110 | 0.0 | 0.0 | 0.00 | 0.00 | 0.00 | 80 | 1015.0 |
| 20260510093455 | 36 | 110 | 0.0 | 0.0 | 0.00 | 0.00 | 0.00 | 80 | 1014.8 |
| 20260510092951 | 36 | 110 | 0.0 | 0.0 | 0.00 | 0.00 | 0.00 | 81 | 1014.7 |
| 20260510092449 | 36 | 110 | 0.0 | 0.0 | 0.00 | 0.00 | 0.00 | 83 | 1014.7 |
| 20260510091948 | 36 | 110 | 0.0 | 0.0 | 0.00 | 0.00 | 0.00 | 82 | 1014.7 |
| 20260510091446 | 36 | 110 | 0.0 | 0.0 | 0.00 | 0.00 | 0.00 | 84 | 1014.6 |
| 20260510090942 | 36 | 110 | 0.0 | 0.0 | 0.00 | 0.00 | 0.00 | 84 | 1014.7 |
| 20260510090439 | 36 | 109 | 0.0 | 0.0 | 0.00 | 0.00 | 0.00 | 85 | 1014.7 |
| 20260510085934 | 36 | 109 | 0.0 | 0.0 | 0.00 | 0.00 | 0.00 | 84 | 1014.6 |
| 20260510085430 | 36 | 109 | 0.0 | 0.0 | 0.00 | 0.00 | 0.00 | 84 | 1014.5 |
| 20260510084925 | 36 | 109 | 0.0 | 1.0 | 0.00 | 0.00 | 0.00 | 84 | 1014.6 |
| 20260510084423 | 36 | 109 | 0.0 | 0.0 | 0.00 | 0.00 | 0.00 | 84 | 1014.5 |
| 20260510083920 | 36 | 109 | 0.0 | 0.0 | 0.00 | 0.00 | 0.00 | 83 | 1014.4 |
| 20260510083416 | 36 | 109 | 0.0 | 1.0 | 0.00 | 0.00 | 0.00 | 83 | 1014.2 |
| 20260510082911 | 36 | 109 | 0.0 | 1.0 | 0.00 | 0.00 | 0.00 | 81 | 1014.2 |
| 20260510082409 | 37 | 109 | 0.0 | 1.0 | 0.00 | 0.00 | 0.00 | 81 | 1013.9 |
| 20260510081907 | 37 | 109 | 0.0 | 1.0 | 0.00 | 0.00 | 0.00 | 79 | 1014.1 |
| 20260510081404 | 37 | 109 | 0.0 | 0.0 | 0.00 | 0.00 | 0.00 | 74 | 1013.8 |
| 20260510080900 | 37 | 109 | 0.0 | 1.0 | 0.00 | 0.00 | 0.00 | 72 | 1013.6 |
| 20260510080354 | 37 | 109 | 0.0 | 0.0 | 0.00 | 0.00 | 0.00 | 73 | 1013.6 |
| 20260510075852 | 37 | 109 | 0.0 | 0.0 | 0.00 | 0.00 | 0.00 | 74 | 1013.6 |
| 20260510075350 | 37 | 109 | 0.0 | 0.0 | 0.00 | 0.00 | 0.00 | 73 | 1013.7 |
| 20260510074845 | 37 | 109 | 0.0 | 0.0 | 0.00 | 0.00 | 0.00 | 72 | 1013.5 |
| 20260510074343 | 37 | 109 | 0.0 | 0.0 | 0.00 | 0.00 | 0.00 | 71 | 1013.6 |
| 20260510073839 | 37 | 109 | 0.0 | 1.0 | 0.00 | 0.00 | 0.00 | 71 | 1013.6 |
| 20260510073335 | 37 | 109 | 0.0 | 0.0 | 0.00 | 0.00 | 0.00 | 71 | 1013.5 |
| 20260510072831 | 38 | 109 | 0.0 | 0.0 | 0.00 | 0.00 | 0.00 | 70 | 1013.6 |
| 20260510072328 | 38 | 109 | 0.0 | 1.0 | 0.00 | 0.00 | 0.00 | 70 | 1013.6 |
| 20260510071819 | 38 | 109 | 1.0 | 1.0 | 0.00 | 0.00 | 0.00 | 70 | 1013.5 |
| 20260510071315 | 38 | 109 | 1.0 | 1.0 | 0.00 | 0.00 | 0.00 | 70 | 1013.4 |
| 20260510070814 | 38 | 109 | 0.0 | 1.0 | 0.00 | 0.00 | 0.00 | 69 | 1013.6 |
| 20260510070310 | 37 | 108 | 0.0 | 0.0 | 0.00 | 0.00 | 0.00 | 70 | 1013.4 |
| 20260510065810 | 37 | 108 | 0.0 | 0.0 | 0.00 | 0.00 | 0.00 | 70 | 1013.5 |
| 20260510065307 | 37 | 108 | 0.0 | 0.0 | 0.00 | 0.00 | 0.00 | 69 | 1013.5 |
| 20260510064804 | 37 | 108 | 0.0 | 1.0 | 0.00 | 0.00 | 0.00 | 68 | 1013.4 |
| 20260510064302 | 37 | 108 | 0.0 | 0.0 | 0.00 | 0.00 | 0.00 | 68 | 1013.5 |
| 20260510063757 | 38 | 109 | 0.0 | 0.0 | 0.00 | 0.00 | 0.00 | 68 | 1013.5 |
| 20260510063254 | 38 | 108 | 0.0 | 0.0 | 0.00 | 0.00 | 0.00 | 67 | 1013.4 |
| 20260510062751 | 38 | 108 | 0.0 | 0.0 | 0.00 | 0.00 | 0.00 | 67 | 1013.6 |
| 20260510062247 | 39 | 109 | 0.0 | 1.0 | 0.00 | 0.00 | 0.00 | 69 | 1013.3 |
| 20260510061742 | 39 | 109 | 0.0 | 0.0 | 0.00 | 0.00 | 0.00 | 66 | 1013.4 |
| 20260510061240 | 39 | 109 | 0.0 | 1.0 | 0.00 | 0.00 | 0.00 | 65 | 1013.4 |
| 20260510060735 | 39 | 109 | 0.0 | 0.0 | 0.00 | 0.00 | 0.00 | 66 | 1013.3 |
| 20260510060233 | 39 | 109 | 0.0 | 1.0 | 0.00 | 0.00 | 0.00 | 65 | 1013.5 |
| 20260510055729 | 39 | 109 | 0.0 | 1.0 | 0.00 | 0.00 | 0.00 | 64 | 1013.6 |
| 20260510055227 | 39 | 109 | 0.0 | 0.0 | 0.00 | 0.00 | 0.00 | 64 | 1013.1 |
| 20260510054722 | 40 | 109 | 0.0 | 0.0 | 0.00 | 0.00 | 0.00 | 64 | 1013.2 |
| 20260510054218 | 39 | 109 | 0.0 | 1.0 | 0.00 | 0.00 | 0.00 | 63 | 1013.2 |
| 20260510053717 | 40 | 109 | 0.0 | 1.0 | 0.00 | 0.00 | 0.00 | 63 | 1013.1 |
| 20260510053214 | 40 | 109 | 0.0 | 1.0 | 0.00 | 0.00 | 0.00 | 63 | 1013.2 |
| 20260510052710 | 40 | 108 | 0.0 | 1.0 | 0.00 | 0.00 | 0.00 | 64 | 1013.1 |
| 20260510052206 | 40 | 108 | 0.0 | 0.0 | 0.00 | 0.00 | 0.00 | 64 | 1013.2 |
| 20260510051702 | 40 | 108 | 0.0 | 0.0 | 0.00 | 0.00 | 0.00 | 62 | 1013.0 |
| 20260510051158 | 40 | 108 | 0.0 | 1.0 | 0.00 | 0.00 | 0.00 | 61 | 1012.9 |
| 20260510050656 | 40 | 108 | 0.0 | 0.0 | 0.00 | 0.00 | 0.00 | 61 | 1012.7 |
| 20260510050153 | 41 | 108 | 1.0 | 1.0 | 0.00 | 0.00 | 0.00 | 61 | 1013.1 |
| 20260510045649 | 41 | 106 | 0.0 | 1.0 | 0.00 | 0.22 | 0.22 | 60 | 1013.0 |
| 20260510045146 | 41 | 106 | 0.0 | 1.0 | 0.00 | 0.22 | 0.22 | 59 | 1012.7 |
| 20260510044642 | 41 | 105 | 0.0 | 1.0 | 0.00 | 0.22 | 0.22 | 58 | 1012.7 |
| 20260510044140 | 41 | 105 | 0.0 | 1.0 | 0.00 | 0.22 | 0.22 | 58 | 1012.7 |
| 20260510043635 | 42 | 105 | 0.0 | 0.0 | 0.00 | 0.22 | 0.22 | 58 | 1012.9 |
| 20260510043132 | 42 | 105 | 0.0 | 0.0 | 0.00 | 0.22 | 0.22 | 58 | 1012.9 |
| 20260510042630 | 42 | 105 | 0.0 | 0.0 | 0.00 | 0.22 | 0.22 | 57 | 1012.7 |
| 20260510042125 | 42 | 105 | 0.0 | 0.0 | 0.00 | 0.22 | 0.22 | 58 | 1013.0 |
| 20260510041623 | 42 | 105 | 0.0 | 0.0 | 0.00 | 0.22 | 0.22 | 61 | 1012.7 |
| 20260510041120 | 42 | 105 | 0.0 | 0.0 | 0.00 | 0.22 | 0.22 | 58 | 1012.7 |
| 20260510040617 | 42 | 105 | 0.0 | 0.0 | 0.00 | 0.22 | 0.22 | 57 | 1012.5 |
| 20260510040113 | 42 | 105 | 0.0 | 0.0 | 0.00 | 0.22 | 0.22 | 57 | 1012.6 |
| 20260510035609 | 42 | 105 | 0.0 | 0.0 | 0.00 | 0.22 | 0.22 | 57 | 1012.5 |
| 20260510035104 | 42 | 105 | 0.0 | 0.0 | 0.00 | 0.22 | 0.22 | 56 | 1012.4 |
| 20260510034602 | 42 | 105 | 0.0 | 0.0 | 0.00 | 0.22 | 0.22 | 56 | 1012.3 |
| 20260510034059 | 42 | 105 | 0.0 | 0.0 | 0.00 | 0.22 | 0.22 | 57 | 1012.4 |
| 20260510033555 | 43 | 105 | 0.0 | 0.0 | 0.00 | 0.22 | 0.22 | 56 | 1012.3 |
| 20260510033053 | 43 | 105 | 0.0 | 0.0 | 0.00 | 0.22 | 0.22 | 55 | 1012.6 |
| 20260510032549 | 44 | 105 | 0.0 | 0.0 | 0.00 | 0.22 | 0.22 | 54 | 1012.6 |
| 20260510032044 | 44 | 105 | 0.0 | 0.0 | 0.00 | 0.22 | 0.22 | 53 | 1012.4 |
| 20260510031539 | 45 | 105 | 0.0 | 0.0 | 0.00 | 0.22 | 0.22 | 53 | 1012.2 |
| 20260510031035 | 45 | 105 | 0.0 | 1.0 | 0.00 | 0.22 | 0.22 | 53 | 1012.3 |
| 20260510030531 | 46 | 105 | 0.0 | 1.0 | 0.00 | 0.22 | 0.22 | 52 | 1012.1 |
| 20260510030029 | 46 | 104 | 1.0 | 2.0 | 0.00 | 0.22 | 0.22 | 52 | 1012.0 |
| 20260510025526 | 47 | 110 | 0.0 | 2.0 | 0.00 | 0.22 | 0.22 | 50 | 1012.1 |
| 20260510025023 | 47 | 100 | 1.0 | 1.0 | 0.00 | 0.22 | 0.22 | 51 | 1011.8 |
| 20260510024520 | 47 | 107 | 0.0 | 2.0 | 0.00 | 0.22 | 0.22 | 50 | 1011.6 |
| 20260510024016 | 48 | 94 | 1.0 | 2.0 | 0.00 | 0.22 | 0.22 | 50 | 1011.7 |
| 20260510023512 | 48 | 79 | 2.0 | 2.0 | 0.00 | 0.22 | 0.22 | 48 | 1011.4 |
| 20260510023010 | 48 | 104 | 0.0 | 3.0 | 0.00 | 0.22 | 0.22 | 48 | 1011.6 |
| 20260510022509 | 48 | 113 | 1.0 | 2.0 | 0.00 | 0.22 | 0.22 | 49 | 1011.2 |
| 20260510022008 | 49 | 98 | 0.0 | 2.0 | 0.00 | 0.22 | 0.22 | 47 | 1011.1 |
| 20260510021505 | 49 | 96 | 1.0 | 2.0 | 0.00 | 0.22 | 0.22 | 48 | 1011.2 |
| 20260510021003 | 49 | 71 | 1.0 | 2.0 | 0.00 | 0.22 | 0.22 | 49 | 1010.9 |
| 20260510020457 | 50 | 108 | 2.0 | 2.0 | 0.00 | 0.22 | 0.22 | 46 | 1010.8 |
| 20260510015953 | 50 | 57 | 1.0 | 3.0 | 0.00 | 0.22 | 0.22 | 42 | 1010.8 |
| 20260510015448 | 50 | 100 | 1.0 | 2.0 | 0.00 | 0.22 | 0.22 | 44 | 1010.7 |
| 20260510014943 | 51 | 65 | 3.0 | 5.0 | 0.00 | 0.22 | 0.22 | 42 | 1010.5 |
| 20260510014442 | 51 | 116 | 0.0 | 6.0 | 0.00 | 0.22 | 0.22 | 42 | 1010.3 |
| 20260510013938 | 52 | 98 | 2.0 | 2.0 | 0.00 | 0.22 | 0.22 | 42 | 1010.4 |
| 20260510013432 | 52 | 82 | 3.0 | 3.0 | 0.00 | 0.22 | 0.22 | 40 | 1010.3 |
| 20260510012928 | 52 | 76 | 1.0 | 2.0 | 0.00 | 0.22 | 0.22 | 42 | 1010.0 |
| 20260510012423 | 52 | 87 | 1.0 | 2.0 | 0.00 | 0.22 | 0.22 | 43 | 1010.2 |
| 20260510011918 | 53 | 101 | 0.0 | 1.0 | 0.00 | 0.22 | 0.22 | 43 | 1010.1 |
| 20260510011414 | 53 | 113 | 0.0 | 2.0 | 0.00 | 0.22 | 0.22 | 39 | 1009.9 |
| 20260510010910 | 53 | 98 | 2.0 | 3.0 | 0.00 | 0.22 | 0.22 | 39 | 1009.8 |
| 20260510010408 | 54 | 96 | 1.0 | 3.0 | 0.00 | 0.22 | 0.22 | 37 | 1009.6 |
| 20260510005904 | 54 | 93 | 1.0 | 3.0 | 0.00 | 0.22 | 0.22 | 40 | 1009.7 |
| 20260510005400 | 54 | 55 | 3.0 | 3.0 | 0.00 | 0.22 | 0.22 | 36 | 1009.4 |
| 20260510004858 | 54 | 44 | 2.0 | 3.0 | 0.00 | 0.22 | 0.22 | 36 | 1009.6 |
| 20260510004355 | 54 | 11 | 1.0 | 3.0 | 0.00 | 0.22 | 0.22 | 37 | 1009.4 |
| 20260510003853 | 54 | 97 | 1.0 | 5.0 | 0.00 | 0.22 | 0.22 | 37 | 1009.4 |
| 20260510003350 | 54 | 18 | 2.0 | 3.0 | 0.00 | 0.22 | 0.22 | 37 | 1009.2 |
| 20260510002848 | 55 | 82 | 1.0 | 5.0 | 0.00 | 0.22 | 0.22 | 37 | 1009.3 |
| 20260510002346 | 55 | 113 | 1.0 | 9.0 | 0.00 | 0.22 | 0.22 | 35 | 1009.3 |
| 20260510001842 | 55 | 114 | 0.0 | 2.0 | 0.00 | 0.22 | 0.22 | 36 | 1009.2 |
| 20260510001340 | 55 | 35 | 3.0 | 6.0 | 0.00 | 0.22 | 0.22 | 35 | 1009.0 |
| 20260510000836 | 55 | 30 | 2.0 | 7.0 | 0.00 | 0.22 | 0.22 | 35 | 1009.2 |
| 20260510000334 | 55 | 343 | 3.0 | 9.0 | 0.00 | 0.22 | 0.22 | 34 | 1009.2 |
| 20260509235830 | 56 | 76 | 2.0 | 6.0 | 0.00 | 0.22 | 0.22 | 33 | 1009.0 |
| 20260509235327 | 56 | 111 | 1.0 | 9.0 | 0.00 | 0.22 | 0.22 | 32 | 1009.0 |
| 20260509234823 | 56 | 107 | 1.0 | 6.0 | 0.00 | 0.22 | 0.22 | 33 | 1008.9 |
| 20260509234320 | 57 | 290 | 1.0 | 6.0 | 0.00 | 0.22 | 0.22 | 34 | 1009.0 |
| 20260509233818 | 57 | 338 | 7.0 | 9.0 | 0.00 | 0.22 | 0.22 | 32 | 1008.6 |
| 20260509233316 | 57 | 144 | 1.0 | 3.0 | 0.00 | 0.22 | 0.22 | 33 | 1008.6 |
| 20260509232811 | 57 | 56 | 5.0 | 6.0 | 0.00 | 0.22 | 0.22 | 33 | 1008.5 |
| 20260509232309 | 58 | 60 | 3.0 | 10.0 | 0.00 | 0.22 | 0.22 | 33 | 1008.4 |
| 20260509231805 | 58 | 39 | 3.0 | 5.0 | 0.00 | 0.22 | 0.22 | 34 | 1008.4 |
| 20260509231302 | 58 | 83 | 1.0 | 5.0 | 0.00 | 0.22 | 0.22 | 31 | 1008.2 |
| 20260509230800 | 58 | 359 | 5.0 | 9.0 | 0.00 | 0.22 | 0.22 | 31 | 1008.6 |
| 20260509230256 | 59 | 145 | 3.0 | 7.0 | 0.00 | 0.22 | 0.22 | 31 | 1008.5 |
| 20260509225751 | 58 | 186 | 2.0 | 7.0 | 0.00 | 0.22 | 0.22 | 31 | 1008.4 |
| 20260509225248 | 59 | 135 | 1.0 | 11.0 | 0.00 | 0.22 | 0.22 | 31 | 1008.3 |
| 20260509224744 | 59 | 67 | 4.0 | 5.0 | 0.00 | 0.22 | 0.22 | 31 | 1008.1 |
| 20260509224241 | 59 | 76 | 2.0 | 5.0 | 0.00 | 0.22 | 0.22 | 31 | 1008.2 |
| 20260509223738 | 59 | 25 | 2.0 | 6.0 | 0.00 | 0.22 | 0.22 | 31 | 1008.5 |
| 20260509223235 | 59 | 258 | 3.0 | 7.0 | 0.00 | 0.22 | 0.22 | 31 | 1008.3 |
| 20260509222732 | 59 | 82 | 4.0 | 8.0 | 0.00 | 0.22 | 0.22 | 30 | 1007.9 |
| 20260509222227 | 59 | 331 | 2.0 | 8.0 | 0.00 | 0.22 | 0.22 | 32 | 1008.0 |
| 20260509221723 | 58 | 346 | 4.0 | 8.0 | 0.00 | 0.22 | 0.22 | 31 | 1008.2 |
| 20260509221219 | 59 | 107 | 2.0 | 8.0 | 0.00 | 0.22 | 0.22 | 33 | 1007.8 |
| 20260509220715 | 59 | 4 | 2.0 | 8.0 | 0.00 | 0.22 | 0.22 | 32 | 1008.0 |
| 20260509220212 | 58 | 63 | 3.0 | 6.0 | 0.00 | 0.22 | 0.22 | 33 | 1007.8 |
| 20260509215707 | 59 | 37 | 5.0 | 9.0 | 0.00 | 0.22 | 0.22 | 32 | 1007.9 |
| 20260509215204 | 59 | 336 | 3.0 | 8.0 | 0.00 | 0.22 | 0.22 | 31 | 1007.9 |
| 20260509214701 | 59 | 336 | 5.0 | 7.0 | 0.00 | 0.22 | 0.22 | 32 | 1007.8 |
| 20260509214158 | 59 | 81 | 1.0 | 9.0 | 0.00 | 0.22 | 0.22 | 32 | 1007.9 |
| 20260509213655 | 59 | 352 | 7.0 | 9.0 | 0.00 | 0.22 | 0.22 | 32 | 1007.7 |
| 20260509213151 | 60 | 40 | 2.0 | 9.0 | 0.00 | 0.22 | 0.22 | 32 | 1007.5 |
| 20260509212648 | 59 | 31 | 2.0 | 7.0 | 0.00 | 0.22 | 0.22 | 33 | 1007.5 |
| 20260509212145 | 59 | 30 | 3.0 | 6.0 | 0.00 | 0.22 | 0.22 | 32 | 1007.3 |
| 20260509211641 | 59 | 80 | 4.0 | 8.0 | 0.00 | 0.22 | 0.22 | 33 | 1007.6 |
| 20260509211138 | 59 | 7 | 4.0 | 8.0 | 0.00 | 0.22 | 0.22 | 32 | 1007.5 |
| 20260509210635 | 59 | 257 | 5.0 | 14.0 | 0.00 | 0.22 | 0.22 | 33 | 1007.6 |
| 20260509210132 | 59 | 30 | 5.0 | 10.0 | 0.00 | 0.22 | 0.22 | 33 | 1007.6 |
| 20260509205627 | 59 | 2 | 3.0 | 9.0 | 0.00 | 0.22 | 0.22 | 35 | 1007.3 |
| 20260509205121 | 60 | 306 | 2.0 | 7.0 | 0.00 | 0.22 | 0.22 | 37 | 1007.2 |
| 20260509204618 | 59 | 95 | 2.0 | 7.0 | 0.00 | 0.22 | 0.22 | 37 | 1007.6 |
| 20260509204114 | 60 | 24 | 8.0 | 13.0 | 0.00 | 0.22 | 0.22 | 32 | 1007.4 |
| 20260509203610 | 59 | 147 | 3.0 | 5.0 | 0.00 | 0.22 | 0.22 | 34 | 1007.5 |
| 20260509203109 | 60 | 63 | 2.0 | 20.0 | 0.00 | 0.22 | 0.22 | 37 | 1007.4 |
| 20260509202603 | 60 | 89 | 3.0 | 8.0 | 0.00 | 0.22 | 0.22 | 34 | 1007.5 |
| 20260509202058 | 59 | 98 | 5.0 | 13.0 | 0.00 | 0.22 | 0.22 | 39 | 1007.3 |
| 20260509201553 | 60 | 17 | 3.0 | 7.0 | 0.00 | 0.22 | 0.22 | 33 | 1007.4 |
| 20260509201051 | 59 | 105 | 3.0 | 5.0 | 0.00 | 0.22 | 0.22 | 36 | 1007.2 |
| 20260509200550 | 60 | 320 | 3.0 | 3.0 | 0.00 | 0.22 | 0.22 | 35 | 1007.1 |
| 20260509200047 | 59 | 186 | 1.0 | 6.0 | 0.00 | 0.22 | 0.22 | 35 | 1007.1 |
| 20260509195543 | 59 | 358 | 3.0 | 8.0 | 0.00 | 0.22 | 0.22 | 35 | 1006.9 |
| 20260509195038 | 59 | 3 | 4.0 | 6.0 | 0.00 | 0.22 | 0.22 | 34 | 1007.2 |
| 20260509194533 | 60 | 165 | 3.0 | 8.0 | 0.00 | 0.22 | 0.22 | 35 | 1007.2 |
| 20260509194031 | 59 | 112 | 3.0 | 15.0 | 0.00 | 0.22 | 0.22 | 37 | 1007.0 |
| 20260509193531 | 59 | 155 | 1.0 | 8.0 | 0.00 | 0.22 | 0.22 | 37 | 1006.9 |
| 20260509193028 | 59 | 17 | 3.0 | 7.0 | 0.00 | 0.22 | 0.22 | 37 | 1006.9 |
| 20260509192524 | 59 | 132 | 2.0 | 8.0 | 0.00 | 0.22 | 0.22 | 37 | 1006.9 |
| 20260509192019 | 59 | 47 | 6.0 | 8.0 | 0.00 | 0.22 | 0.22 | 36 | 1006.7 |
| 20260509191514 | 59 | 127 | 2.0 | 7.0 | 0.00 | 0.22 | 0.22 | 37 | 1006.8 |
| 20260509191010 | 58 | 105 | 0.0 | 7.0 | 0.00 | 0.22 | 0.22 | 37 | 1006.8 |
| 20260509190507 | 58 | 82 | 3.0 | 8.0 | 0.00 | 0.22 | 0.22 | 39 | 1006.6 |
| 20260509190006 | 58 | 95 | 5.0 | 15.0 | 0.00 | 0.22 | 0.22 | 37 | 1006.6 |
| 20260509185502 | 59 | 277 | 4.0 | 8.0 | 0.00 | 0.22 | 0.22 | 36 | 1006.6 |
| 20260509184958 | 59 | 72 | 4.0 | 5.0 | 0.00 | 0.22 | 0.22 | 38 | 1006.6 |
| 20260509184457 | 58 | 69 | 3.0 | 7.0 | 0.00 | 0.22 | 0.22 | 40 | 1006.6 |
| 20260509183952 | 59 | 70 | 5.0 | 9.0 | 0.00 | 0.22 | 0.22 | 38 | 1006.2 |
| 20260509183447 | 58 | 289 | 4.0 | 8.0 | 0.00 | 0.22 | 0.22 | 37 | 1006.1 |
| 20260509182944 | 59 | 67 | 4.0 | 8.0 | 0.00 | 0.22 | 0.22 | 38 | 1006.4 |
| 20260509182440 | 58 | 97 | 1.0 | 7.0 | 0.00 | 0.22 | 0.22 | 38 | 1006.3 |
| 20260509181937 | 57 | 255 | 6.0 | 7.0 | 0.00 | 0.22 | 0.22 | 36 | 1006.1 |
| 20260509181436 | 58 | 30 | 1.0 | 6.0 | 0.00 | 0.22 | 0.22 | 38 | 1006.4 |
| 20260509180933 | 58 | 357 | 5.0 | 6.0 | 0.00 | 0.22 | 0.22 | 38 | 1006.5 |
| 20260509180428 | 57 | 211 | 4.0 | 9.0 | 0.00 | 0.22 | 0.22 | 36 | 1006.2 |
| 20260509175925 | 57 | 32 | 1.0 | 10.0 | 0.00 | 0.22 | 0.22 | 39 | 1006.0 |
| 20260509175421 | 57 | 333 | 5.0 | 7.0 | 0.00 | 0.22 | 0.22 | 40 | 1006.2 |
| 20260509174918 | 58 | 150 | 4.0 | 7.0 | 0.00 | 0.22 | 0.22 | 36 | 1006.0 |
| 20260509174414 | 58 | 56 | 5.0 | 8.0 | 0.00 | 0.22 | 0.22 | 37 | 1006.0 |
| 20260509173910 | 58 | 125 | 1.0 | 5.0 | 0.00 | 0.22 | 0.22 | 39 | 1005.9 |
| 20260509173409 | 57 | 170 | 2.0 | 9.0 | 0.00 | 0.22 | 0.22 | 41 | 1006.1 |
| 20260509172906 | 58 | 289 | 4.0 | 8.0 | 0.00 | 0.22 | 0.22 | 39 | 1005.8 |
| 20260509172403 | 57 | 46 | 2.0 | 9.0 | 0.00 | 0.22 | 0.22 | 40 | 1006.1 |
| 20260509171859 | 57 | 71 | 3.0 | 6.0 | 0.00 | 0.22 | 0.22 | 39 | 1006.0 |
| 20260509171355 | 57 | 211 | 2.0 | 7.0 | 0.00 | 0.22 | 0.22 | 40 | 1005.8 |
| 20260509170851 | 56 | 81 | 2.0 | 10.0 | 0.00 | 0.22 | 0.22 | 39 | 1006.0 |
| 20260509170347 | 56 | 108 | 2.0 | 5.0 | 0.00 | 0.22 | 0.22 | 38 | 1005.8 |
| 20260509165842 | 57 | 136 | 5.0 | 7.0 | 0.00 | 0.22 | 0.22 | 36 | 1005.8 |
| 20260509165337 | 56 | 85 | 2.0 | 11.0 | 0.00 | 0.22 | 0.22 | 40 | 1005.7 |
| 20260509164833 | 57 | 352 | 2.0 | 7.0 | 0.00 | 0.22 | 0.22 | 43 | 1005.7 |
| 20260509164329 | 56 | 144 | 2.0 | 8.0 | 0.00 | 0.22 | 0.22 | 42 | 1005.5 |
| 20260509163826 | 56 | 92 | 1.0 | 6.0 | 0.00 | 0.22 | 0.22 | 43 | 1005.3 |
| 20260509163322 | 56 | 65 | 3.0 | 5.0 | 0.00 | 0.22 | 0.22 | 39 | 1005.3 |
| 20260509162821 | 56 | 40 | 5.0 | 7.0 | 0.00 | 0.22 | 0.22 | 41 | 1005.4 |
| 20260509162314 | 55 | 59 | 3.0 | 8.0 | 0.00 | 0.22 | 0.22 | 43 | 1005.4 |
| 20260509161811 | 55 | 307 | 2.0 | 9.0 | 0.00 | 0.22 | 0.22 | 46 | 1005.3 |
| 20260509161307 | 55 | 5 | 2.0 | 7.0 | 0.00 | 0.22 | 0.22 | 47 | 1005.2 |
| 20260509160803 | 55 | 28 | 4.0 | 6.0 | 0.00 | 0.22 | 0.22 | 43 | 1005.3 |
| 20260509160259 | 55 | 57 | 3.0 | 5.0 | 0.00 | 0.22 | 0.22 | 44 | 1005.2 |
| 20260509155754 | 54 | 210 | 2.0 | 7.0 | 0.00 | 0.22 | 0.22 | 42 | 1005.0 |
| 20260509155251 | 55 | 41 | 3.0 | 9.0 | 0.00 | 0.22 | 0.22 | 45 | 1005.0 |
| 20260509154747 | 54 | 330 | 2.0 | 6.0 | 0.00 | 0.22 | 0.22 | 51 | 1004.8 |
| 20260509154245 | 54 | 88 | 1.0 | 5.0 | 0.00 | 0.22 | 0.22 | 47 | 1004.8 |
| 20260509153741 | 53 | 282 | 2.0 | 9.0 | 0.00 | 0.22 | 0.22 | 52 | 1004.8 |
| 20260509153237 | 55 | 71 | 2.0 | 3.0 | 0.00 | 0.22 | 0.22 | 47 | 1004.5 |
| 20260509152734 | 54 | 32 | 5.0 | 8.0 | 0.00 | 0.22 | 0.22 | 52 | 1004.5 |
| 20260509152231 | 54 | 86 | 5.0 | 7.0 | 0.00 | 0.22 | 0.22 | 54 | 1004.7 |
| 20260509151728 | 53 | 31 | 3.0 | 10.0 | 0.00 | 0.22 | 0.22 | 51 | 1004.4 |
| 20260509151224 | 54 | 127 | 2.0 | 6.0 | 0.00 | 0.22 | 0.22 | 57 | 1004.4 |
| 20260509150722 | 53 | 34 | 3.0 | 5.0 | 0.00 | 0.22 | 0.22 | 58 | 1004.4 |
| 20260509150220 | 53 | 88 | 3.0 | 7.0 | 0.00 | 0.22 | 0.22 | 59 | 1004.3 |
| 20260509145717 | 53 | 30 | 3.0 | 5.0 | 0.00 | 0.22 | 0.22 | 62 | 1004.3 |
| 20260509145212 | 52 | 3 | 2.0 | 5.0 | 0.00 | 0.22 | 0.22 | 66 | 1004.0 |